sat.trackr.live / text

‹ back to catalog

STARLINK-36352

NORAD 67567 · 2026-016G

PAYLOAD ACTIVE UNKNOWN

§ Identity

Operator
Country
US
Launch date
2026-01-25
Launch site
AFWTR
Launch vehicle
Mass (kg)
RCS (m²)

Purposes: comms

External: N2YO · Heavens-Above · Gunter

§ Orbital elements

Epoch: 2026-09-18T22:41:07.868544Z

Period
93.91 min
Inclination
97.2863°
Eccentricity
0.0000512
Mean motion
15.33446045 rev/d
Perigee alt
465.2 km
Apogee alt
465.9 km
Semi-major
6,843.7 km
B*
5.4443e-4
RAAN
320.6527°
Arg perigee
133.6825°
Mean anomaly
226.4460°
Rev number
3,648

§ Raw data

STARLINK-363521 67567U 26016G   26261.94522996  .00017542  00000+0  54443-3 0  99902 67567  97.2863 320.6527 0000512 133.6825 226.4460 15.33446045 36489

JSON: /api/v1/satellites/67567 · /tle

For live sub-satellite position, see the globe view (requires WebGL).

§ Visibility from observer

Set your observer location to see the next 7 days of passes ≥ 10°. The values pass through the URL so the page stays shareable.

No JS? Fill the form by hand. The geolocation button needs JavaScript.